Wind_Speed
7 6 5 3 2 4 6 7 9 11 11 11 10 9 8 6 4 4 6 8 11 13 14 14 15 15 16 15 14 13 13 13 14 16 19 19 20 24 26 27 28 30 31 29 24 19 16 17 17 17 19 23 26 28 29 29 28 30 31 31 32 30 28
10 9 7 5 3 3 4 5 7 9 9 9 8 8 8 7 6 6 6 5 6 7 10 12 14 15 16 18 18 17 16 16 16 17 18 19 20 21 22 23 26 28 30 32 30 30 29 27 24 22 19 18 23 28 30 29 28 30 31 31 31 29 27
11 10 9 7 5 3 3 3 5 7 8 9 8 8 8 8 7 8 8 8 8 7 7 8 10 12 15 17 19 20 20 20 20 20 20 20 21 22 21 21 23 25 27 29 30 33 35 34 32 31 27 21 21 25 28 30 30 30 32 32 31 29 27
11 11 10 8 7 6 5 4 5 6 7 8 9 9 9 9 10 10 11 11 11 11 10 10 10 11 12 14 17 20 22 23 23 23 23 23 22 23 23 22 24 25 25 27 28 30 34 36 36 36 34 28 23 21 22 26 30 31 32 33 32 30 29
12 12 11 9 9 9 7 6 5 6 6 7 9 10 10 11 12 12 13 13 14 13 13 14 14 14 14 14 15 18 21 24 25 25 26 26 25 25 24 24 25 26 26 26 27 27 30 33 33 34 36 33 29 27 22 20 24 27 30 32 32 32 30
14 13 12 12 12 11 9 7 7 6 6 7 8 9 10 11 12 13 14 14 14 15 15 17 18 18 18 17 17 17 19 21 23 25 27 28 27 26 26 26 26 27 27 27 28 28 28 31 31 33 37 35 34 35 30 25 23 22 25 29 32 33 32
15 15 14 14 14 13 11 10 9 8 7 7 7 8 10 11 13 14 15 16 16 16 17 18 19 18 18 18 19 19 20 21 23 25 27 28 28 27 27 28 28 28 28 27 28 29 29 31 32 33 35 34 33 36 36 32 28 25 23 25 27 30 33
15 15 15 15 15 14 13 12 11 10 9 9 9 10 11 13 14 15 17 17 18 18 19 20 19 18 16 16 17 19 20 21 23 26 28 29 29 28 28 29 30 30 29 28 27 29 30 31 32 33 34 34 32 34 35 33 31 30 29 26 24 25 30
15 15 16 17 17 16 15 14 13 12 11 11 11 12 13 14 15 16 17 18 19 20 20 20 20 18 17 16 15 16 19 21 23 25 27 29 30 30 29 29 30 31 32 31 29 28 28 30 31 33 34 35 33 32 33 31 31 32 32 31 27 22 24
14 14 15 16 17 18 17 16 14 13 13 13 13 14 15 15 16 17 18 19 20 21 21 21 21 19 18 17 17 17 16 17 21 24 26 27 28 29 29 28 27 30 33 33 33 31 30 29 30 31 33 35 36 35 33 31 32 34 33 32 30 25 24
13 13 14 15 17 18 18 17 15 14 14 15 15 16 16 17 18 19 19 20 21 21 22 23 22 21 19 19 19 19 18 16 17 20 23 25 25 25 27 27 26 27 30 32 33 33 32 31 30 31 32 33 35 36 36 34 35 37 35 33 33 29 26
13 12 13 15 17 18 18 17 16 16 16 16 17 17 17 18 19 19 20 21 22 22 23 23 23 22 20 20 20 20 20 19 19 19 20 23 25 25 25 27 27 26 25 27 30 32 33 33 32 32 32 31 33 36 38 37 36 40 40 38 37 35 31
13 13 13 14 16 17 18 17 17 17 17 17 18 17 18 18 19 20 21 22 22 23 23 23 23 22 21 21 21 21 21 20 21 22 21 20 23 25 24 25 26 26 23 23 26 28 30 31 32 33 33 32 32 34 37 38 38 41 43 41 41 40 36
14 14 14 15 16 17 18 18 18 18 18 18 18 18 19 19 20 20 21 22 23 23 24 24 24 23 22 22 21 21 22 22 22 23 23 22 21 22 23 23 24 25 24 23 24 25 27 29 30 31 32 33 33 33 35 37 38 40 41 40 40 40 38
15 15 15 16 17 17 18 18 18 18 18 18 18 18 19 19 20 21 22 23 23 24 24 25 24 23 22 23 23 23 22 22 22 22 23 24 23 23 24 25 27 27 26 25 24 23 25 27 28 29 30 31 32 34 34 35 36 37 39 38 37 38 38
17 17 17 17 18 18 18 18 18 18 18 18 18 18 19 20 21 22 22 22 23 23 24 24 24 23 22 24 25 25 23 22 23 23 23 24 24 24 25 25 27 28 28 28 27 24 23 24 26 28 29 30 31 32 32 34 34 35 36 37 37 37 37
18 18 18 18 19 18 18 18 18 18 18 18 18 18 19 20 21 21 22 23 23 24 24 24 23 23 24 25 26 26 24 23 23 23 24 24 25 25 26 27 27 27 28 29 30 29 26 23 24 26 28 30 31 32 32 33 34 34 35 36 36 36 35
20 19 19 19 19 19 18 18 18 17 16 16 17 18 19 20 20 21 22 23 24 24 24 23 23 24 25 27 28 28 26 24 24 25 25 25 25 25 26 27 28 28 28 29 31 31 30 27 26 26 26 27 29 31 32 33 34 35 35 37 36 35 34
21 20 19 19 18 18 18 17 16 15 15 15 16 18 19 19 20 21 22 23 24 24 23 23 24 25 26 27 28 28 26 26 26 27 28 28 28 27 26 26 26 27 28 30 30 31 32 31 29 28 28 28 28 29 30 33 34 35 36 38 37 37 36
21 20 19 18 18 17 16 15 14 13 14 15 16 17 18 19 20 22 23 23 22 21 20 21 21 22 23 24 25 26 27 27 28 29 28 28 28 29 29 28 27 26 26 28 29 30 31 32 32 31 29 29 30 30 30 31 33 35 38 39 39 38 38
20 19 18 17 17 16 15 13 13 13 14 15 16 17 18 20 21 21 21 21 22 22 23 23 24 24 23 22 22 23 25 27 29 30 30 29 29 29 29 29 29 29 27 27 27 28 29 31 33 34 33 30 30 31 30 30 31 33 36 38 39 39 37
20 18 17 17 16 15 14 12 13 13 14 15 16 17 19 20 20 21 22 23 25 26 27 28 29 30 30 29 28 27 28 29 31 33 34 34 34 33 32 31 31 30 30 29 28 27 28 29 31 34 36 34 32 31 30 29 29 30 32 34 36 38 38
19 18 17 16 15 14 13 12 13 13 14 15 16 18 19 19 20 22 24 26 28 29 31 32 32 33 34 34 35 34 34 34 34 35 37 38 38 38 37 36 35 34 33 32 32 31 31 31 31 32 34 36 37 36 34 34 33 32 32 33 33 34 36
19 18 17 16 15 13 12 12 12 13 14 16 17 18 19 20 22 24 26 28 30 32 33 34 35 37 36 33 33 35 37 38 37 37 38 39 40 41 41 40 40 39 38 37 36 35 35 35 35 34 34 36 38 39 39 39 39 38 37 36 35 33 35
18 17 16 14 12 11 10 11 12 14 16 17 19 20 21 23 24 26 28 29 31 33 34 37 39 39 36 31 29 30 33 36 38 39 40 41 42 43 43 43 42 42 42 41 41 40 39 38 38 37 37 37 38 40 42 42 42 41 40 40 39 38 37
17 16 14 11 10 9 10 12 14 17 18 19 20 21 22 23 25 26 28 29 32 35 37 39 40 38 35 31 30 30 31 33 35 37 39 41 43 44 44 44 44 44 44 43 42 42 42 42 42 41 40 39 39 39 41 44 44 44 43 42 43 44 43
15 13 11 9 9 11 12 14 16 18 19 19 20 21 22 24 25 27 29 32 35 38 39 40 39 36 33 31 31 31 32 34 35 36 37 38 40 42 43 44 45 45 45 44 43 43 42 42 43 43 44 43 42 41 40 41 44 45 45 44 45 47 47
12 11 10 10 11 12 13 14 16 17 18 18 18 20 22 24 26 29 32 35 37 39 40 40 38 35 33 32 32 32 34 35 37 39 40 40 41 42 42 43 44 44 44 44 43 42 42 42 42 43 45 45 45 45 43 40 40 42 43 42 43 46 47
12 10 10 10 10 11 13 14 15 15 15 16 17 20 22 25 28 31 34 36 38 40 40 39 37 35 34 33 34 34 35 36 38 39 40 41 41 42 42 43 44 44 44 43 42 40 40 40 41 43 46 47 47 48 48 45 40 39 39 38 38 41 44
10 9 9 10 10 11 12 12 13 14 16 17 19 22 25 27 30 33 35 37 38 39 39 37 35 35 33 31 31 32 32 34 36 38 40 41 41 42 42 42 42 43 43 43 42 40 39 38 40 42 44 46 47 48 50 48 44 41 39 35 34 35 38
8 9 10 10 10 10 11 13 15 17 18 19 21 23 25 28 31 33 35 36 37 37 37 35 32 31 30 29 30 30 32 34 37 39 41 42 42 43 44 43 42 42 43 43 41 40 40 39 40 40 41 43 46 48 49 47 44 44 42 38 33 33 35
10 10 9 9 9 10 12 14 15 16 17 19 21 24 26 28 30 31 31 32 32 33 33 32 31 29 28 28 29 30 33 36 38 40 40 41 42 42 43 43 42 41 42 42 40 39 38 39 41 41 40 41 44 48 47 43 42 42 42 41 36 33 34
8 7 7 7 8 9 10 10 12 14 17 20 22 24 25 26 27 28 29 31 32 32 33 33 32 29 28 27 28 30 33 36 37 38 38 39 41 41 42 42 42 41 41 41 40 38 37 37 40 41 42 43 46 47 44 41 40 38 38 41 39 35 34
4 2 3 6 9 10 10 10 14 17 19 21 22 22 23 26 30 33 36 37 37 35 34 34 33 33 32 31 30 31 33 34 35 37 39 40 40 41 41 42 42 41 40 40 40 39 38 38 37 39 43 47 49 47 43 42 42 38 36 40 40 36 35
1 3 5 8 9 9 10 12 15 17 19 21 22 21 24 28 32 36 40 42 41 38 36 34 34 33 34 33 32 32 33 35 35 37 40 40 40 40 41 41 42 41 40 40 40 39 39 39 38 39 42 45 46 45 42 43 43 40 39 41 42 39 34
3 4 5 7 7 7 9 12 15 17 20 23 24 24 26 29 31 35 41 44 42 39 37 35 34 33 34 34 34 34 35 36 36 36 39 40 41 42 42 43 43 41 39 39 40 40 40 40 40 41 42 41 42 41 41 41 41 41 40 40 45 45 37
3 6 8 9 9 8 9 12 16 19 22 24 26 27 28 28 30 36 43 44 43 40 37 36 34 34 34 35 36 36 36 36 36 36 38 40 41 42 44 44 43 41 39 39 39 40 41 41 42 43 42 41 41 39 39 40 40 40 39 38 45 49 42
Wind_Direction
214 224 242 270 305 348 3 8 15 22 26 30 32 34 39 32 3 317 283 267 263 264 264 260 253 246 241 237 232 234 242 251 260 264 263 262 259 254 252 252 252 251 251 249 242 242 253 253 241 236 241 247 248 243 243 245 240 237 241 245 249 255 259
223 230 237 246 257 309 340 353 5 11 15 23 23 18 24 32 30 18 360 337 311 289 279 276 272 266 258 251 244 240 240 241 247 256 261 264 264 263 261 258 257 256 256 255 249 244 249 255 253 246 241 244 248 245 244 246 243 238 241 244 248 253 254
223 223 235 244 246 267 289 327 347 351 354 1 8 6 4 8 14 13 4 356 349 337 320 305 292 283 275 267 258 251 248 246 246 250 255 258 260 263 266 265 263 261 260 259 254 248 247 249 251 251 250 250 250 246 244 246 245 243 243 244 248 251 251
226 227 239 249 252 259 268 295 322 335 344 346 347 348 348 349 352 354 353 349 344 339 333 325 313 301 289 280 273 263 256 252 251 252 254 256 258 261 263 263 263 262 262 262 258 254 251 249 249 250 251 251 251 249 248 247 245 244 246 247 247 248 249
237 240 244 248 250 255 264 282 298 309 323 330 332 335 336 337 338 340 340 338 336 332 331 328 322 314 303 290 281 274 267 260 256 255 256 257 260 263 264 264 263 262 262 263 262 260 258 254 253 252 252 253 254 252 249 248 246 243 243 246 247 247 247
244 249 246 243 247 253 256 261 269 284 301 313 318 322 323 323 322 323 324 325 326 326 326 324 319 312 302 293 283 274 269 265 261 258 257 257 258 260 263 263 262 263 263 262 260 261 261 258 258 258 256 257 258 255 250 250 251 247 242 243 243 244 245
250 253 250 245 248 254 255 258 267 276 282 288 295 300 304 309 312 315 318 320 321 321 319 316 313 307 296 288 282 273 264 260 258 258 259 259 256 254 256 258 260 261 264 263 259 258 258 257 257 259 259 259 258 255 254 253 253 252 247 245 245 243 241
255 256 254 251 252 255 257 261 268 275 279 282 287 292 297 303 309 314 318 319 318 317 317 317 315 311 301 291 285 277 268 259 253 252 255 258 258 256 253 255 259 261 262 263 261 260 258 256 254 254 255 255 251 251 253 254 254 255 254 252 253 247 240
254 256 255 254 255 257 260 263 266 271 277 282 287 293 297 302 307 311 313 315 315 315 318 321 320 315 308 299 293 284 275 266 259 254 252 253 256 259 257 256 257 261 262 261 262 262 261 260 255 251 250 250 248 249 251 253 254 256 258 256 253 247 239
253 255 256 255 255 257 261 263 265 269 275 281 286 292 296 300 305 310 313 313 314 317 320 324 323 319 312 304 300 294 284 275 267 261 259 256 254 257 259 259 258 259 261 261 262 262 261 262 260 255 252 250 249 249 249 253 255 257 259 258 254 248 240
254 257 258 257 255 256 260 263 266 269 273 279 285 291 296 301 307 310 312 314 316 320 323 325 324 321 314 308 304 301 295 290 281 270 265 263 260 256 254 256 259 260 261 262 264 264 263 263 263 262 259 254 252 251 250 252 256 258 258 257 256 255 253
253 257 258 258 258 259 261 264 266 269 272 277 283 290 297 303 307 310 312 316 320 323 323 322 322 319 312 304 300 300 298 296 293 286 276 267 263 260 256 254 256 259 263 265 266 267 266 264 264 265 265 262 258 254 252 251 253 256 256 256 258 261 262
254 259 259 259 260 260 261 262 265 268 271 278 284 291 298 302 307 311 315 319 322 322 320 318 317 315 310 301 293 290 291 291 290 290 287 278 267 262 262 262 259 257 260 268 271 270 270 268 267 266 266 266 262 258 256 253 251 255 258 257 260 263 264
257 261 261 260 258 256 258 259 262 267 271 278 285 292 299 304 310 315 318 321 321 320 317 316 314 311 309 305 295 284 282 284 287 288 289 287 277 266 261 263 262 256 253 261 270 272 273 273 272 270 268 267 265 263 262 259 255 258 261 260 260 262 263
258 261 262 263 260 256 255 256 260 266 271 278 286 293 300 307 313 318 319 319 318 316 314 312 311 308 304 302 298 289 281 279 280 284 287 287 285 279 269 263 261 257 251 252 259 266 272 274 273 272 272 270 268 265 264 263 259 258 261 262 260 259 258
257 258 260 262 262 259 258 259 262 267 274 282 289 297 305 312 316 318 317 315 313 311 310 310 308 306 301 298 297 292 286 281 278 278 280 282 284 285 282 276 270 264 257 253 251 255 264 272 273 272 271 272 271 269 267 264 259 257 262 265 262 258 256
253 254 257 260 261 261 261 262 265 270 277 285 294 302 310 314 315 313 312 311 310 309 310 309 306 302 298 296 295 291 287 284 280 278 277 278 280 283 283 282 279 275 269 262 255 253 254 261 268 271 272 271 270 270 270 266 263 261 264 265 263 259 258
249 250 253 255 257 259 262 264 267 273 280 289 298 306 311 312 310 309 308 307 307 307 306 304 301 297 295 295 294 292 287 283 280 278 275 273 276 279 280 281 281 280 278 273 264 257 254 255 260 266 270 272 271 270 269 269 268 266 264 263 261 261 261
245 246 249 252 255 257 261 265 269 276 286 295 302 306 307 307 306 304 303 302 302 302 300 298 297 296 297 297 298 297 293 288 285 281 277 272 271 273 275 278 280 280 279 279 275 267 259 255 256 261 266 269 270 270 267 267 267 267 265 263 262 262 261
242 244 247 250 253 257 261 265 272 281 291 298 301 302 301 301 300 298 298 299 298 296 294 293 294 295 298 299 301 301 297 293 290 286 283 278 274 272 271 271 274 275 276 279 281 278 270 262 257 257 261 266 268 270 270 268 266 264 263 263 261 260 258
238 240 244 248 252 257 261 267 277 287 295 297 298 298 298 297 297 297 297 295 291 288 286 287 288 288 289 291 292 292 290 288 287 285 283 280 276 272 269 267 266 266 269 272 276 279 277 272 265 258 256 259 263 265 268 272 270 264 261 261 260 258 257
234 235 240 243 247 255 261 272 283 289 295 296 295 296 296 296 296 294 292 288 287 287 288 288 289 287 284 281 279 278 278 278 279 279 277 276 274 271 268 266 263 262 262 263 264 265 267 269 269 264 258 256 258 260 261 265 269 268 264 262 260 257 255
230 231 235 238 245 255 264 276 287 292 295 294 293 294 293 292 292 289 288 288 288 290 292 294 296 295 291 284 278 275 275 275 274 274 275 275 274 272 269 266 263 261 260 259 259 258 258 259 262 264 262 258 258 260 260 260 262 266 268 267 263 258 254
226 227 229 235 244 256 269 282 291 293 290 287 287 289 289 287 288 288 289 290 291 293 296 299 303 305 302 293 282 276 274 273 273 272 273 274 274 275 273 271 267 264 261 259 259 258 258 257 256 258 261 259 257 258 261 261 260 262 266 268 267 264 258
219 222 227 237 249 264 278 286 288 284 280 281 285 288 288 288 289 290 291 291 293 296 299 301 305 308 306 301 294 287 281 278 276 273 272 273 273 275 276 276 274 271 267 263 261 260 260 259 257 256 257 257 255 253 254 257 259 260 262 266 266 264 261
217 224 232 244 258 271 279 277 277 276 277 283 289 291 291 290 290 290 290 292 295 298 301 304 307 309 307 303 300 297 293 289 285 280 277 275 274 275 275 277 277 276 274 271 268 266 264 263 261 259 257 257 256 253 250 249 252 256 259 263 265 263 261
219 225 234 247 259 269 273 272 274 276 281 288 292 293 292 290 289 290 292 296 300 301 304 307 309 307 303 300 298 296 294 292 290 287 284 281 279 277 277 278 278 277 276 275 273 272 270 269 267 264 261 258 256 256 254 249 247 250 255 258 262 262 260
212 221 235 252 264 270 271 272 275 280 286 292 293 292 290 289 291 295 299 302 303 304 306 308 308 304 298 296 295 292 290 288 287 286 285 284 283 281 280 279 279 278 277 276 274 273 271 271 270 268 266 262 257 254 254 251 245 245 251 255 258 260 261
207 224 244 257 266 269 270 274 278 281 286 289 290 291 292 295 299 301 302 304 304 305 307 306 304 300 295 292 291 290 289 288 287 287 287 287 286 285 283 281 279 278 277 276 275 274 273 272 270 268 267 265 261 257 253 250 244 241 245 250 254 257 258
215 236 249 251 256 262 265 271 275 279 284 287 290 293 296 299 302 302 304 306 307 307 306 303 300 298 296 294 292 292 292 291 290 290 290 290 289 287 285 283 281 279 277 275 274 272 273 272 270 268 267 266 265 262 256 251 246 241 241 245 251 255 254
224 232 237 242 249 257 265 274 281 286 289 290 293 296 299 301 303 305 307 307 306 305 303 301 300 299 298 296 293 292 291 290 290 290 290 290 288 286 285 283 281 279 277 276 274 270 269 269 267 267 267 266 265 263 260 256 252 244 240 241 246 250 251
220 227 239 252 264 275 284 288 290 291 291 293 297 299 302 305 309 311 312 311 310 309 308 308 306 302 298 294 291 289 288 288 288 290 292 292 290 288 286 283 280 278 277 276 275 272 269 265 263 262 263 263 263 262 262 263 260 251 245 246 248 247 246
224 239 257 279 298 311 315 308 298 296 297 302 306 306 308 316 324 329 330 329 326 322 319 316 314 310 304 298 292 289 288 288 290 293 296 297 295 291 288 285 282 278 277 276 276 275 272 267 262 259 257 257 257 259 262 264 262 258 250 248 249 248 244
226 259 312 334 342 341 331 313 304 303 306 311 315 315 320 329 337 339 340 337 333 328 323 318 315 312 308 304 300 297 296 295 297 298 299 298 295 292 289 287 283 279 276 275 275 274 273 270 265 259 254 253 254 257 261 262 263 263 255 246 246 248 246
96 37 9 355 349 336 316 306 306 308 314 321 324 325 330 335 336 336 337 335 332 329 325 319 314 311 308 307 307 305 303 302 301 300 298 296 294 292 290 288 286 283 278 275 273 273 271 270 268 263 257 255 255 257 259 261 263 266 261 249 243 244 244
78 45 23 10 360 340 317 311 313 317 324 330 331 332 334 334 333 332 333 332 330 328 325 320 316 313 311 311 312 310 306 304 302 300 297 295 295 294 292 291 289 286 281 275 272 271 270 268 266 264 262 259 257 257 258 260 261 263 263 253 243 241 241
77 55 42 26 12 352 327 320 323 326 331 334 333 334 335 333 333 335 334 332 330 329 326 323 319 317 316 315 313 312 309 306 305 302 298 296 295 294 293 291 289 286 281 274 268 267 267 266 265 264 264 261 259 258 257 257 258 259 261 255 244 238 237
Height
1530 1531 1531 1531 1531 1531 1531 1531 1531 1531 1531 1531 1531 1531 1532 1532 1531 1532 1532 1533 1533 1533 1534 1534 1534 1535 1535 1536 1536 1537 1537 1538 1539 1538 1538 1539 1539 1540 1541 1541 1542 1542 1543 1544 1546 1545 1544 1543 1543 1543 1543 1544 1545 1545 1545 1546 1546 1547 1547 1547 1547 1547 1547
1530 1530 1531 1531 1531 1531 1531 1530 1530 1531 1531 1531 1531 1531 1531 1531 1532 1531 1532 1532 1532 1532 1532 1533 1533 1533 1533 1533 1534 1534 1535 1536 1536 1536 1536 1537 1537 1538 1538 1539 1539 1540 1540 1541 1542 1543 1542 1541 1540 1540 1541 1542 1542 1542 1543 1543 1544 1544 1545 1545 1545 1545 1545
1529 1529 1530 1530 1530 1530 1530 1530 1530 1530 1530 1530 1530 1531 1531 1531 1531 1531 1531 1531 1531 1531 1531 1532 1532 1531 1531 1531 1532 1532 1532 1533 1534 1534 1534 1535 1535 1535 1536 1536 1536 1536 1537 1538 1538 1539 1539 1538 1537 1537 1538 1540 1540 1540 1541 1541 1541 1542 1542 1543 1543 1543 1543
1527 1528 1528 1528 1528 1528 1529 1529 1529 1529 1529 1529 1529 1530 1530 1530 1530 1530 1530 1530 1530 1530 1530 1530 1530 1530 1530 1530 1530 1530 1530 1530 1531 1531 1532 1532 1533 1533 1533 1534 1533 1533 1534 1534 1535 1536 1536 1535 1535 1534 1535 1538 1538 1538 1538 1539 1539 1540 1540 1540 1540 1540 1540
1526 1526 1526 1526 1527 1527 1528 1528 1528 1528 1528 1528 1528 1528 1528 1528 1529 1529 1529 1529 1529 1529 1529 1529 1529 1529 1528 1528 1528 1527 1528 1528 1528 1529 1529 1529 1530 1530 1531 1531 1531 1531 1531 1532 1532 1533 1533 1533 1533 1532 1532 1535 1536 1536 1536 1537 1537 1537 1537 1537 1538 1538 1538
1524 1525 1525 1525 1526 1526 1526 1527 1527 1527 1527 1527 1527 1527 1527 1528 1528 1528 1528 1528 1528 1528 1528 1527 1527 1526 1526 1526 1526 1525 1525 1526 1526 1526 1526 1526 1527 1528 1528 1529 1529 1529 1529 1529 1530 1530 1531 1531 1531 1530 1530 1532 1533 1533 1534 1535 1535 1535 1535 1535 1535 1536 1536
1523 1523 1524 1524 1524 1525 1525 1526 1526 1526 1526 1526 1527 1527 1527 1527 1527 1527 1527 1527 1527 1527 1526 1526 1525 1525 1524 1523 1523 1523 1523 1523 1523 1524 1524 1524 1524 1525 1526 1526 1526 1526 1526 1527 1527 1527 1528 1528 1528 1528 1528 1529 1530 1530 1531 1532 1532 1532 1532 1533 1533 1534 1534
1521 1522 1523 1523 1523 1524 1524 1524 1525 1525 1525 1526 1526 1526 1526 1526 1526 1526 1525 1525 1525 1525 1524 1523 1523 1522 1522 1521 1520 1520 1519 1520 1520 1520 1521 1521 1521 1522 1523 1523 1523 1523 1524 1524 1524 1524 1525 1525 1525 1526 1526 1527 1527 1527 1527 1528 1528 1528 1529 1530 1531 1531 1531
1520 1520 1521 1522 1522 1522 1523 1523 1524 1524 1524 1524 1524 1525 1524 1524 1524 1524 1524 1523 1523 1522 1522 1521 1520 1519 1519 1519 1518 1518 1517 1517 1517 1517 1518 1518 1518 1519 1520 1520 1520 1520 1521 1521 1522 1522 1522 1522 1522 1523 1523 1523 1524 1524 1524 1524 1524 1524 1525 1527 1528 1528 1528
1517 1518 1519 1520 1520 1521 1521 1522 1522 1523 1523 1523 1523 1523 1523 1523 1523 1522 1522 1521 1521 1520 1519 1518 1518 1517 1517 1516 1516 1516 1515 1515 1515 1514 1515 1515 1515 1516 1516 1517 1517 1517 1517 1518 1518 1518 1519 1519 1519 1519 1520 1520 1520 1520 1520 1520 1519 1520 1522 1523 1524 1526 1526
1515 1516 1517 1517 1518 1518 1519 1520 1521 1521 1521 1521 1521 1521 1522 1521 1521 1520 1520 1519 1518 1517 1516 1516 1515 1515 1514 1514 1513 1513 1513 1513 1512 1512 1512 1512 1512 1513 1513 1513 1514 1514 1514 1514 1514 1515 1515 1516 1516 1516 1516 1516 1516 1516 1517 1517 1515 1516 1518 1519 1520 1521 1522
1512 1513 1514 1515 1515 1516 1517 1517 1518 1519 1519 1519 1519 1519 1519 1519 1519 1518 1518 1517 1516 1515 1514 1514 1513 1513 1512 1511 1511 1511 1510 1510 1510 1510 1509 1509 1509 1509 1509 1510 1510 1511 1511 1511 1511 1511 1512 1512 1513 1513 1513 1513 1513 1513 1513 1514 1512 1512 1514 1516 1516 1517 1518
1510 1511 1511 1512 1513 1513 1514 1515 1516 1516 1517 1517 1517 1517 1517 1517 1517 1516 1515 1514 1513 1513 1512 1512 1511 1511 1510 1510 1509 1508 1508 1508 1508 1507 1507 1506 1506 1506 1506 1507 1507 1508 1508 1508 1509 1509 1508 1509 1509 1509 1509 1510 1510 1510 1511 1510 1509 1508 1510 1512 1513 1513 1514
1507 1508 1509 1510 1510 1511 1512 1512 1513 1514 1514 1514 1515 1515 1515 1514 1514 1513 1512 1512 1511 1511 1510 1509 1509 1508 1508 1507 1507 1506 1506 1506 1505 1505 1504 1504 1503 1503 1503 1503 1503 1504 1505 1505 1505 1506 1506 1506 1506 1506 1506 1506 1507 1508 1508 1507 1507 1506 1506 1508 1510 1510 1511
1505 1505 1506 1507 1507 1508 1509 1510 1510 1511 1511 1512 1512 1512 1512 1511 1511 1510 1510 1509 1509 1508 1508 1507 1507 1506 1505 1505 1504 1504 1503 1503 1502 1502 1502 1501 1501 1501 1500 1500 1499 1500 1501 1501 1501 1502 1503 1503 1503 1503 1503 1503 1503 1504 1505 1505 1505 1504 1502 1504 1506 1507 1507
1502 1503 1503 1504 1504 1505 1506 1507 1508 1508 1509 1509 1509 1509 1509 1508 1508 1507 1507 1507 1506 1506 1506 1505 1504 1504 1503 1502 1501 1501 1501 1500 1500 1499 1499 1499 1498 1498 1498 1497 1496 1497 1497 1497 1498 1498 1499 1500 1500 1500 1499 1500 1500 1500 1501 1502 1502 1501 1500 1500 1501 1503 1504
1500 1500 1500 1501 1502 1502 1503 1504 1505 1506 1506 1506 1506 1506 1506 1505 1505 1505 1504 1504 1504 1503 1503 1502 1502 1501 1501 1500 1499 1498 1498 1497 1497 1496 1496 1496 1496 1495 1495 1494 1494 1494 1494 1494 1494 1494 1495 1496 1496 1497 1496 1497 1497 1497 1497 1498 1498 1498 1497 1496 1497 1499 1500
1497 1497 1498 1499 1499 1500 1501 1502 1502 1503 1503 1504 1503 1503 1503 1503 1502 1502 1502 1501 1501 1501 1500 1500 1499 1499 1498 1497 1496 1495 1494 1494 1493 1493 1493 1492 1492 1492 1492 1491 1491 1491 1491 1490 1490 1490 1491 1492 1492 1493 1493 1494 1493 1493 1494 1494 1494 1494 1494 1493 1493 1495 1496
1494 1495 1496 1496 1497 1498 1498 1499 1500 1500 1501 1501 1500 1500 1500 1500 1500 1499 1499 1499 1498 1498 1497 1497 1497 1496 1495 1494 1493 1492 1491 1491 1490 1489 1489 1489 1488 1488 1488 1488 1488 1488 1488 1487 1487 1487 1487 1488 1488 1489 1489 1490 1490 1490 1490 1490 1490 1491 1490 1490 1490 1491 1491
1492 1493 1494 1495 1495 1496 1496 1497 1497 1498 1498 1498 1498 1498 1497 1497 1497 1497 1496 1496 1495 1495 1494 1494 1493 1493 1492 1491 1490 1489 1488 1487 1486 1486 1485 1485 1484 1484 1484 1484 1484 1484 1484 1484 1484 1484 1484 1484 1484 1484 1485 1486 1487 1487 1486 1486 1486 1486 1486 1486 1486 1487 1487
1490 1491 1492 1493 1493 1494 1494 1495 1495 1495 1496 1495 1495 1495 1495 1495 1494 1494 1494 1493 1492 1491 1491 1490 1490 1489 1488 1487 1487 1485 1484 1483 1482 1481 1481 1480 1480 1479 1479 1479 1479 1479 1480 1480 1481 1481 1481 1481 1480 1480 1480 1482 1483 1483 1483 1483 1482 1482 1482 1482 1482 1482 1483
1488 1490 1490 1491 1491 1492 1492 1493 1493 1493 1493 1493 1493 1493 1492 1492 1491 1491 1490 1489 1489 1488 1488 1488 1487 1487 1485 1484 1482 1481 1480 1479 1478 1477 1476 1475 1475 1475 1474 1474 1474 1474 1475 1475 1475 1476 1476 1477 1477 1476 1476 1477 1478 1478 1478 1479 1479 1479 1479 1478 1478 1478 1478
1487 1488 1488 1489 1490 1490 1491 1491 1491 1491 1490 1490 1490 1490 1490 1489 1488 1488 1487 1486 1486 1485 1485 1485 1484 1483 1482 1480 1478 1477 1475 1474 1473 1472 1471 1470 1469 1469 1469 1469 1469 1469 1469 1469 1470 1470 1471 1471 1472 1472 1472 1473 1473 1474 1474 1474 1474 1475 1475 1475 1474 1475 1474
1486 1487 1487 1488 1488 1489 1489 1489 1489 1488 1488 1488 1488 1487 1487 1486 1485 1485 1484 1483 1483 1482 1481 1481 1480 1479 1477 1476 1474 1472 1470 1469 1468 1467 1466 1465 1464 1463 1463 1463 1463 1463 1464 1464 1464 1465 1465 1466 1466 1467 1468 1468 1468 1469 1469 1469 1469 1470 1471 1470 1471 1471 1471
1485 1486 1486 1486 1487 1487 1487 1487 1487 1487 1486 1486 1486 1485 1485 1484 1483 1482 1481 1480 1479 1478 1477 1477 1475 1474 1472 1470 1469 1468 1466 1464 1463 1462 1461 1460 1459 1458 1458 1457 1457 1457 1457 1458 1459 1459 1459 1460 1461 1461 1462 1462 1463 1463 1464 1465 1465 1465 1466 1466 1466 1467 1467
1484 1484 1485 1485 1485 1485 1485 1485 1485 1485 1484 1484 1484 1483 1482 1481 1480 1479 1478 1477 1476 1474 1473 1472 1471 1469 1467 1465 1465 1463 1461 1460 1458 1457 1456 1455 1454 1453 1452 1452 1451 1451 1451 1452 1452 1453 1453 1454 1455 1455 1456 1456 1457 1457 1458 1460 1460 1460 1461 1462 1461 1461 1462
1483 1483 1483 1484 1484 1483 1484 1484 1483 1483 1483 1482 1481 1480 1479 1478 1477 1476 1475 1474 1472 1470 1469 1468 1466 1464 1463 1461 1460 1459 1457 1455 1453 1451 1450 1449 1449 1447 1447 1446 1445 1444 1445 1445 1446 1447 1447 1448 1448 1448 1449 1450 1450 1451 1452 1453 1454 1455 1456 1456 1456 1456 1458
1481 1482 1482 1483 1483 1482 1482 1482 1482 1481 1480 1480 1479 1478 1477 1476 1474 1473 1472 1470 1468 1466 1465 1463 1462 1460 1459 1457 1456 1454 1452 1450 1448 1446 1445 1444 1443 1442 1441 1441 1439 1438 1438 1438 1439 1441 1441 1442 1442 1441 1441 1442 1443 1444 1444 1446 1447 1449 1450 1451 1451 1451 1453
1480 1481 1482 1481 1481 1481 1480 1480 1479 1479 1478 1477 1477 1476 1474 1473 1472 1470 1469 1467 1465 1462 1460 1459 1457 1456 1454 1453 1451 1449 1447 1445 1443 1441 1439 1438 1437 1435 1435 1434 1433 1432 1432 1432 1433 1434 1436 1436 1436 1435 1434 1434 1435 1436 1436 1438 1441 1443 1444 1445 1446 1446 1447
1479 1480 1480 1479 1479 1478 1478 1477 1477 1477 1476 1476 1474 1473 1472 1471 1469 1467 1465 1463 1461 1458 1456 1454 1453 1451 1449 1448 1446 1444 1442 1440 1438 1435 1433 1432 1431 1429 1428 1428 1427 1426 1425 1425 1427 1428 1430 1431 1430 1428 1428 1427 1428 1427 1427 1430 1435 1436 1438 1440 1441 1441 1442
1477 1477 1477 1477 1476 1475 1475 1475 1475 1474 1474 1473 1472 1471 1470 1468 1466 1464 1461 1459 1457 1454 1451 1449 1448 1446 1445 1444 1442 1440 1438 1435 1433 1430 1428 1426 1424 1422 1421 1421 1421 1420 1419 1419 1421 1422 1424 1425 1424 1423 1423 1422 1421 1419 1419 1424 1428 1430 1432 1434 1435 1436 1437
1475 1475 1475 1474 1474 1473 1473 1473 1473 1472 1472 1471 1470 1468 1467 1465 1463 1460 1458 1456 1453 1450 1447 1444 1443 1441 1440 1439 1438 1436 1434 1430 1427 1425 1422 1419 1417 1415 1414 1413 1413 1413 1412 1413 1414 1415 1417 1418 1417 1417 1418 1417 1414 1412 1414 1419 1422 1423 1426 1428 1429 1430 1432
1473 1473 1473 1472 1471 1471 1470 1470 1470 1470 1470 1469 1467 1466 1464 1461 1459 1456 1454 1451 1448 1446 1442 1439 1438 1436 1435 1434 1433 1431 1429 1425 1422 1419 1416 1413 1410 1408 1407 1406 1405 1406 1406 1406 1407 1408 1410 1411 1411 1411 1412 1411 1407 1407 1411 1415 1415 1417 1420 1421 1422 1424 1426
1471 1471 1470 1469 1469 1468 1468 1468 1468 1468 1467 1466 1465 1463 1461 1458 1455 1452 1450 1447 1444 1441 1438 1435 1433 1431 1430 1428 1427 1425 1423 1420 1417 1414 1410 1408 1405 1402 1400 1399 1398 1399 1400 1400 1401 1402 1402 1403 1404 1405 1404 1403 1402 1405 1409 1410 1410 1413 1415 1415 1417 1419 1420
1469 1469 1468 1467 1467 1467 1467 1467 1466 1466 1465 1464 1462 1460 1457 1455 1452 1449 1446 1443 1440 1437 1434 1431 1428 1426 1424 1422 1420 1419 1416 1414 1412 1410 1405 1401 1399 1396 1394 1393 1391 1392 1393 1394 1394 1395 1395 1396 1397 1397 1396 1397 1399 1402 1404 1404 1405 1408 1408 1409 1411 1413 1414
1467 1467 1467 1466 1466 1466 1466 1465 1464 1464 1463 1461 1459 1457 1454 1452 1449 1446 1442 1439 1436 1432 1429 1426 1423 1421 1418 1416 1414 1412 1410 1408 1407 1404 1400 1396 1393 1390 1388 1386 1385 1385 1386 1387 1387 1388 1388 1389 1390 1389 1390 1392 1395 1397 1399 1399 1400 1401 1402 1403 1405 1406 1407
1466 1466 1465 1465 1465 1465 1464 1464 1463 1462 1460 1458 1456 1454 1452 1449 1446 1443 1439 1434 1430 1427 1424 1421 1418 1415 1413 1410 1408 1406 1404 1401 1399 1397 1394 1390 1387 1384 1382 1380 1379 1378 1379 1379 1380 1381 1381 1382 1382 1382 1384 1387 1389 1391 1393 1393 1394 1395 1396 1396 1397 1399 1401